This is the latest recevied weather packets stored in our database for station/object N5CSU. If no packets are shown the sender has not sent any weather packets the latest 10 day(s).
| Time | Temp. | Humidity | Pressure | Rain* | Wind** | Luminosity | Snow |
|---|---|---|---|---|---|---|---|
| 1777570507 | 16.11° C | 95% | 1014.8 hPa | 0 mm | - | 7 W/m² | - |
| 1777570204 | 16.11° C | 95% | 1015.3 hPa | 0 mm | - | 8 W/m² | - |
| 1777569898 | 16.11° C | 95% | 1015.3 hPa | 0 mm | - | 7 W/m² | - |
| 1777569595 | 16.11° C | 95% | 1015.5 hPa | 0 mm | - | 9 W/m² | - |
| 1777568079 | 16.11° C | 95% | 1016.6 hPa | 0 mm | - | 6 W/m² | - |
| 1777567775 | 16.67° C | 95% | 1016.7 hPa | 0 mm | - | 7 W/m² | - |
| 1777567472 | 16.67° C | 95% | 1016.4 hPa | 0 mm | - | 10 W/m² | - |
| 1777567170 | 16.11° C | 95% | 1016.6 hPa | 0 mm | - | 6 W/m² | - |
| 1777566262 | 16.11° C | 95% | 1016.5 hPa | 0 mm | - | 5 W/m² | - |
| 1777565655 | 16.11° C | 94% | 1015.7 hPa | 0 mm | - | 5 W/m² | - |
| 1777564438 | 16.67° C | 93% | 1016.3 hPa | 0 mm | - | 11 W/m² | - |
| 1777563527 | 16.67° C | 90% | 1016.6 hPa | 0 mm | - | 3 W/m² | - |
| 1777563226 | 16.67° C | 89% | 1016.3 hPa | 0 mm | - | 3 W/m² | - |
| 1777562924 | 16.67° C | 89% | 1015.8 hPa | 0 mm | - | 3 W/m² | - |
| 1777562619 | 16.67° C | 89% | 1015.8 hPa | 0 mm | - | 3 W/m² | - |
| 1777558979 | 16.67° C | 87% | 1014.6 hPa | 0 mm | - | 9 W/m² | - |
| 1777558675 | 16.67° C | 88% | 1014.5 hPa | 0 mm | - | 6 W/m² | - |
| 1777557764 | 16.67° C | 88% | 1014.3 hPa | 0 mm | - | 6 W/m² | - |
| 1777557157 | 16.67° C | 89% | 1014.3 hPa | 0 mm | - | 6 W/m² | - |
| 1777556549 | 16.67° C | 89% | 1014.4 hPa | 0 mm | - | 6 W/m² | - |
| 1777554731 | 16.67° C | 89% | 1014 hPa | 0 mm | - | 7 W/m² | - |
| 1777553821 | 16.11° C | 89% | 1014.1 hPa | 0 mm | - | 5 W/m² | - |
| 1777552604 | 16.11° C | 89% | 1014.2 hPa | 0 mm | - | 7 W/m² | - |
| 1777552301 | 16.11° C | 89% | 1014.1 hPa | 0 mm | - | 5 W/m² | - |
| 1777551997 | 15.56° C | 90% | 1014.2 hPa | 0 mm | - | 4 W/m² | - |
* Rain latest hour (hover to see other rain measurements)
** Current wind speed in m/s (hover to see current wind gust speed)